User: anonymous   Login
Location: Fort Wayne
(41.1310°N, 85.1290°W)
Time: 08:08:53
(UTC-04:00)
Language:

COSMOS 2406 - Orbit

View from above orbital plane
View from above orbital plane
View from above satellite
View from above satellite

Ground track
Ground track

The orbit data is extracted from the following two-line orbital elements,

1 28352U 04021A   17172.85588740 -.00000073 +00000-0 -14169-4 0  9997
2 28352 071.0009 114.9528 0013155 096.7510 263.5108 14.11612013671461
Epoch (UTC): 21 June 2017 20:32:28
Eccentricity: 0.0013155
inclination: 71.0009°
perigee height: 844 km
apogee height: 863 km
right ascension of ascending node: 114.9528°
argument of perigee: 96.7510°
revolutions per day: 14.11612013
mean anomaly at epoch: 263.5108°
orbit number at epoch: 67146

The dashed part of the orbit path shows where the satellite is in the earth's shadow,  

DLR